Back to catalog

CZ-6A DEB

AlivePO
NORAD 60849·DEBRIS·🇨🇳 China

Launched Aug 6, 2024 from Taiyuan Satellite Launch Center

Loading…

Next Passes (next 24 hours)

TLE

FreshSource: Space-Track

Epoch: Sep 14, 2026, 07:06 UTC

1 60849U 24140JC  26257.29651120  .00001371  00000-0  21412-3 0  9991
2 60849  89.1244 270.7162 0144992 279.2141  79.2699 14.65439461111397

Track CZ-6A DEB in real time with AllMySat

Download on the App Store